Погода в Усугли

Погода в Усугли : погода сейчас, прогноз погоды и архив. Всё, что Вы хотите узнать о погоде в Усугли!

Хотите узнать прогноз погоды в Усугли? Тогда Вам сюда: Погода в Усугли

Поиск расширенной информации на нашем сайте:

Другие новости

Новости СМИ2

Главная страница сайта

Новости сайта

03.07.2017

Напоминаем, что на нашем специализированном сайте Метеоцентр.Азия вы можете получить высокодетализированные автоматические прогнозы погоды по пунктам России, СНГ и мира в авиационном формате (включающие направление и скорость ветра, видимость, явления погоды, количество и форму облачности, нижнюю и верхнюю границу облачности).


Погода в Усугли - сегодня

Время (UTC), дата Ветер
(°,м/с) 
Видим.   Явления Облачность Т
(°С)
Тd
(°С)
f(%) Тe
(°С)
Pmin
(гПа)
dP
(гПа)
Po
(мм)
O2
(г/м3)
Тmin Tmax R s Состояние
почвы
18 17.02.18 тихо ()   н/о    ясно 
-28.4 -31.9 72 -28  1032.6  0.2  708  320           
21 17.02.18 тихо ()   н/о    ясно 
-32.1 -35.7 70 -32  1034.8  0.7  709  326           
03 18.02.18 тихо ()   20000 м    ясно 
-17.5 -24.9 52 -18  1029.8  -0.6  709  307           
06 18.02.18 320 (СЗ) 20000 м    1/0 верхняя 
[Ci fib]
-10.6 -23.3 34 -15  1025.3  -2.1  708  298           
09 18.02.18 300 (СЗ) н/о    н/о 
-12.1 -23.9 37 -15  1025.3  -0.4  707  300           
12 18.02.18 300 (СЗ) н/о    ясно 
-22.7 -27.5 65 -23  1029.6  0.7  708  313    -10.3       
15 18.02.18 тихо ()   н/о    ясно 
-26.3 -29.8 72 -26  1031.3  0.3  708  317           
18 18.02.18 180 (Ю) н/о    н/о 
-29.5 -32.6 74 -30  1032.7  0.3  708  322           
21 18.02.18 тихо ()   н/о    ясно 
-32.4 -36.2 69 -32  1033.8  708  326           
03 19.02.18 тихо ()   20000 м    ясно 
-17.7 -24.7 54 -18  1028.8  -0.7  708  307           
06 19.02.18 310 (СЗ) 20000 м    3/0 верхняя 
[Ci fib]
-11 -25.9 28 -14  1024.5  -1.9  707  298           
09 19.02.18 300 (СЗ) 20000 м    1/0 верхняя 
[Ci ing]
-13.4 -25.7 35 -13  1025.4  707  301           
12 19.02.18 тихо ()   н/о    ясно 
-24.6 -29.5 64 -25  1029.9  0.6  707  315    -11       
15 19.02.18 тихо ()   н/о    ясно 
-29 -32.7 70 -29  1031.5  707  321           
18 19.02.18 тихо ()   н/о    н/о 
-32.3 -36.3 68 -32  1032.8  707  325           
21 19.02.18 тихо ()   н/о    ясно 
-34.4 -38.3 68 -34  1033.7  708  328           
03 20.02.18 тихо ()   20000 м    4/0 верхняя 
[Ci fib]
-18.6 -26.2 51 -19  1027.7  -0.6  707  307           
06 20.02.18 290 (З) 20000 м    3/0 верхняя 
[Ci fib]
-10.5 -25 29 -14  1022  -2.8  705  297           
09 20.02.18 300 (СЗ) 20000 м    8/0 верхняя 
[Ci fib]
-11.4 -24 34 -13  1021.5  -0.7  705  298           
12 20.02.18 180 (Ю) н/о    н/о 
-20.8 -26.8 59 -21  1023.6  -1  704  309    -10.5       
15 20.02.18 тихо ()   н/о    н/о 
-22.2 -26.2 70 -22  1022.5  -1.5  703  310           
18 20.02.18 тихо ()   н/о    н/о 
-27.9 -31 75 -28  1023.7  -0.7  702  317           
21 20.02.18 тихо ()   н/о    н/о 
-30.5 -33.9 72 -31  1024  -0.7  702  320           
00 21.02.18 тихо ()   20000 м  туман на расстоянии{дождь}  ясно 
-33.1 -36.6 71 -33  1024.9  -0.7  702  324           
03 21.02.18 130 (ЮВ) 20000 м    8/3 1000 м средняя, верхняя 
[Cu hum|Ac lent|Ci fib]
-16.7 -22.3 62 -17  1018.4  -1.1  701  303           
Время (UTC), дата Ветер
(°,м/с) 
Видим.   Явления Облачность Т
(°С)
Тd
(°С)
f(%) Тe
(°С)
Pmin
(гПа)
dP
(гПа)
Po
(мм)
O2
(г/м3)
Тmin Tmax R s Состояние
почвы

Для получения пояснительной информации подведите курсор к названию столбца.

ПОГОДА в Усугли - архив

Всё, что Вы хотите узнать о погоде в Усугли - удобно и подробно!

Выберите нужную дату (начиная с 1 января 2015* года) и нажмите кнопку "Найти".
Будут отображены архивные сводки погоды по пункту Усугли, начиная с указанной даты.


Отображать данные в формате CSV (для использования в таблицах Excel)


Внимание! Наш архив погоды предназначен исключительно для личного некоммерческого использования в познавательных целях. Если Вам необходимы официальные справки о состоянии погоды (для производственных, юридических, коммерческих и т.п. целей), обращайтесь в органы Росгидромета.

*Примечание: данная дата относится к архиву по метеостанциям СССР (Россия, СНГ, Балтия).
Архив по метеостанциям Зарубежной Европы и Азии (кроме Китая) хранится 10 дней, по другим регионам земного шара (Китай, Африка, Америка, Австралия, Океания) - 1 день.

Усугли - район местоположения метеостанции


Название, широта, долгота, высота метеостанции:
Усугли 52.6°ш. 115.2°д. 646 м над ур. моря [Российская Федерация]

Дополнительная информация

В oтличие oт бoльшинства пoгoдных сайтoв мы публикуем пoдрoбную метеoинфoрмацию в детальнoм прoфессиoнальнoм фoрмате.

Характеристики температуры и влажнoсти вoздуха измеряются на высoте 2 м в тени вдали oт зданий и деревьев.
Скoрoсть ветра измеряется на высoте 10 м (на урoвне рoста челoвека скoрoсть ветра ниже в 1.5-2 раза). Если метеoстанция нахoдится в гoрoде или в лесу, тo скoрoсть ветра занижена на 2-4 м/с пo сравнению с oткрытым местoм. Скoрoсть ветра над акватoриями крупных рек и oзёр, а также на вершинах хoлмoв на 2-5 м/с выше, чем в oбычных услoвиях.
Атмoсфернoе давление в разных тoчках местнoсти мoжет значительнo oтличаться oт давления на метеoстанции, в зависимoсти oт услoвий рельефа (при пoдъёме на 10 м давление пoнижается примернo на 1 мм рт.ст.).